User: anonymous   Login
Location: Newark
(60.6561°N, 46.5772°E)
Time: 05:10:35
(UTC+00:00)
Language:

BUGSAT 1 - Orbit

View from above orbital plane
View from above orbital plane
View from above satellite
View from above satellite

Ground track
Ground track

The orbit data is extracted from the following two-line orbital elements,

1 40014U 14033E   20330.57514075 -.00000191 +00000-0 -11380-4 0  9992
2 40014 098.0849 297.2422 0032684 118.0757 242.3774 14.95554649351098
Epoch (UTC): 25 November 2020 13:48:12
Eccentricity: 0.0032684
inclination: 98.0849°
perigee height: 558 km
apogee height: 603 km
right ascension of ascending node: 297.2422°
argument of perigee: 118.0757°
revolutions per day: 14.95554649
mean anomaly at epoch: 242.3774°
orbit number at epoch: 35109

The dashed part of the orbit path shows where the satellite is in the earth's shadow,  

DLR